Fort Bridger, WY

7:50 AM MST on February 06, 2016 (GMT -0700)
Fort Bridger

Weather History for KFBR - February, 2014

Change the Weather History Date:

Monday, February 10, 2014

  Actual Average (KEVW) Record (KEVW)
Temperature  
Mean Temperature 30 °F 22 °F  
Max Temperature 37 °F 30 °F 37 °F (2000)
Min Temperature 22 °F 14 °F 0 °F (2001)
Degree Days  
Heating Degree Days 36 43  
Month to date heating degree days 432  
Since 1 July heating degree days 5261  
Cooling Degree Days 0 0  
Month to date cooling degree days 0  
Year to date cooling degree days 0  
Moisture  
Dew Point 25 °F    
Average Humidity 85    
Maximum Humidity 99    
Minimum Humidity 68    
Precipitation  
Precipitation 0.00 in 0.02 in 0.29 in (2013)
Month to date precipitation 0.19  
Year to date precipitation 0.73  
Sea Level Pressure  
Sea Level Pressure 30.09 in    
Wind  
Wind Speed 10 mph (West)    
Max Wind Speed 18 mph    
Max Gust Speed 22 mph    
Visibility 9 miles    
Events Snow    
T = Trace of Precipitation, MM = Missing Value Source: NWS Daily Summary

Daily Weather History Graph

Daily Weather History Graph

Search for Another Location

Airport or City:

Trip Planner

Search our weather history database for the weather conditions in past years. The results will help you decide how hot, cold, wet, or windy it might be!

Date:

Astronomy

Feb. 10, 2014 Rise Set
Actual Time 7:22 AM MST 5:49 PM MST
Civil Twilight 6:54 AM MST 6:18 PM MST
Nautical Twilight 6:21 AM MST 6:50 PM MST
Astronomical Twilight 5:49 AM MST 7:22 PM MST
Moon 2:20 PM MST (2/10) 4:19 AM MST (2/10)
Length of Visible Light 11h 23m
Length of Day
10h 26m
Waxing Gibbous, 85% of the Moon is Illuminated
Feb 10
Waxing Gibbous
Feb 14
Full
Feb 22
Last Quarter
Mar 1
New
Mar 8
First Quarter

Hourly Weather History & Observations

Time (MST) Temp. Windchill Dew Point Humidity Pressure Visibility Wind Dir Wind Speed Gust Speed Precip Events Conditions
12:15 AM 30.6 °F 19.8 °F 26.6 °F 85% 30.02 in 10.0 mi WSW 15.0 mph - N/A   Scattered Clouds
12:35 AM 31.1 °F 20.5 °F 27.0 °F 85% 30.02 in 10.0 mi WSW 15.0 mph - N/A   Clear
12:55 AM 30.6 °F 20.7 °F 26.8 °F 86% 30.01 in 10.0 mi WSW 12.7 mph - N/A   Clear
1:15 AM 30.2 °F 21.3 °F 26.6 °F 86% 30.00 in 10.0 mi WSW 10.4 mph - N/A   Clear
1:35 AM 30.0 °F 25.2 °F 26.6 °F 87% 30.00 in 10.0 mi West 4.6 mph - N/A   Scattered Clouds
1:55 AM 30.0 °F 25.2 °F 27.3 °F 90% 30.00 in 10.0 mi WNW 4.6 mph - N/A   Overcast
2:15 AM 29.3 °F 24.3 °F 27.1 °F 92% 30.00 in 10.0 mi West 4.6 mph - N/A   Overcast
2:35 AM 29.3 °F 24.3 °F 27.0 °F 91% 29.98 in 10.0 mi West 4.6 mph - N/A   Overcast
2:55 AM 29.3 °F 22.3 °F 27.0 °F 91% 29.98 in 10.0 mi West 6.9 mph - N/A   Overcast
3:15 AM 29.8 °F 23.9 °F 27.0 °F 89% 29.96 in 10.0 mi WNW 5.8 mph - N/A   Overcast
3:35 AM 30.7 °F 26.0 °F 27.9 °F 89% 29.96 in 10.0 mi WNW 4.6 mph - N/A   Overcast
3:55 AM 30.7 °F - 27.9 °F 89% 29.96 in 10.0 mi Calm Calm - N/A   Overcast
4:15 AM 29.8 °F 26.3 °F 27.5 °F 91% 29.96 in 10.0 mi NNW 3.5 mph - N/A   Overcast
4:35 AM 29.3 °F 23.2 °F 27.7 °F 94% 29.97 in 4.0 mi NNE 5.8 mph - N/A Snow Light Snow
4:55 AM 27.9 °F 22.6 °F 27.1 °F 97% 29.98 in 1.8 mi NNE 4.6 mph - N/A Snow Light Snow
5:15 AM 27.3 °F 22.0 °F 26.6 °F 97% 29.98 in 1.2 mi NNE 4.6 mph - N/A Snow Light Snow
5:35 AM 27.5 °F 23.6 °F 27.1 °F 99% 29.98 in 1.2 mi NNE 3.5 mph - N/A Snow Light Snow
5:55 AM 27.5 °F - 27.3 °F 99% 29.98 in 1.0 mi Calm Calm - N/A Snow Snow
6:15 AM 27.9 °F - 27.5 °F 99% 29.98 in 0.8 mi Calm Calm - N/A Snow Snow
6:35 AM 28.4 °F - 28.0 °F 99% 29.99 in 1.0 mi Calm Calm - N/A Snow Snow
6:55 AM 28.2 °F - 27.9 °F 99% 30.00 in 2.5 mi Calm Calm - N/A Snow Light Snow
7:15 AM 28.0 °F - 27.5 °F 98% 30.01 in 4.0 mi Calm Calm - N/A Snow Light Snow
7:35 AM 28.2 °F 22.0 °F 27.9 °F 99% 30.02 in 2.0 mi SW 5.8 mph - N/A Snow Light Snow
7:55 AM 28.6 °F 23.5 °F 28.2 °F 99% 30.03 in 2.0 mi WSW 4.6 mph - N/A Snow Light Snow
8:15 AM 29.1 °F 23.0 °F 28.8 °F 99% 30.04 in 1.8 mi WSW 5.8 mph - N/A Snow Light Snow
8:35 AM 28.9 °F 22.8 °F 28.4 °F 98% 30.05 in 10.0 mi WSW 5.8 mph - N/A   Overcast
8:55 AM 30.2 °F 21.3 °F 29.3 °F 96% 30.06 in 10.0 mi West 10.4 mph - N/A   Overcast
9:15 AM 30.6 °F 21.2 °F 29.3 °F 95% 30.07 in 10.0 mi West 11.5 mph - N/A   Overcast
9:35 AM 30.2 °F 20.8 °F 28.9 °F 95% 30.08 in 10.0 mi West 11.5 mph - N/A   Overcast
9:55 AM 32.0 °F 23.6 °F 29.1 °F 89% 30.08 in 10.0 mi WNW 10.4 mph - N/A   Overcast
10:15 AM 31.8 °F 21.8 °F 27.7 °F 85% 30.09 in 10.0 mi WNW 13.8 mph - N/A   Scattered Clouds
10:35 AM 32.0 °F 22.5 °F 27.7 °F 84% 30.10 in 10.0 mi WNW 12.7 mph - N/A   Clear
10:55 AM 32.9 °F 24.1 °F 28.4 °F 84% 30.11 in 10.0 mi WNW 11.5 mph - N/A   Clear
11:15 AM 34.0 °F 25.5 °F 28.9 °F 82% 30.12 in 10.0 mi WNW 11.5 mph - N/A   Mostly Cloudy
11:35 AM 33.4 °F 24.3 °F 28.4 °F 82% 30.12 in 10.0 mi WNW 12.7 mph - N/A   Overcast
11:55 AM 34.2 °F - 28.6 °F 80% 30.12 in 10.0 mi North - - N/A   Overcast
12:15 PM 34.9 °F - 28.8 °F 78% 30.12 in 10.0 mi North - - N/A   Mostly Cloudy
12:35 PM 34.3 °F 25.0 °F 28.2 °F 78% 30.11 in 10.0 mi WNW 13.8 mph - N/A   Scattered Clouds
12:55 PM 36.0 °F 26.7 °F 28.8 °F 75% 30.12 in 10.0 mi WNW 15.0 mph - N/A   Mostly Cloudy
1:15 PM 36.7 °F 27.2 °F 29.5 °F 75% 30.12 in 10.0 mi West 16.1 mph - N/A   Overcast
1:35 PM 34.0 °F 24.6 °F 28.4 °F 80% 30.11 in 10.0 mi West 13.8 mph 18.4 mph N/A   Scattered Clouds
1:55 PM 35.8 °F 26.1 °F 29.7 °F 78% 30.11 in 10.0 mi WNW 16.1 mph - N/A   Mostly Cloudy
2:15 PM 37.0 °F 27.0 °F 29.1 °F 73% 30.11 in 10.0 mi West 18.4 mph 21.9 mph N/A   Overcast
2:35 PM 35.1 °F 24.8 °F 28.8 °F 78% 30.11 in 10.0 mi NW 17.3 mph - N/A   Mostly Cloudy
2:55 PM 34.9 °F 25.3 °F 28.0 °F 76% 30.12 in 10.0 mi WNW 15.0 mph - N/A   Mostly Cloudy
3:15 PM 35.1 °F 24.8 °F 25.5 °F 68% 30.12 in 10.0 mi West 17.3 mph - N/A   Scattered Clouds
3:35 PM 34.9 °F 25.3 °F 25.9 °F 70% 30.12 in 10.0 mi WNW 15.0 mph 21.9 mph N/A   Clear
3:55 PM 33.8 °F 23.2 °F 26.6 °F 75% 30.13 in 10.0 mi WNW 17.3 mph - N/A   Scattered Clouds
4:15 PM 34.5 °F 25.7 °F 26.2 °F 72% 30.14 in 10.0 mi WNW 12.7 mph - N/A   Scattered Clouds
4:35 PM 33.3 °F 23.2 °F 24.4 °F 70% 30.14 in 10.0 mi West 15.0 mph - N/A   Clear
4:55 PM 32.0 °F 22.1 °F 23.5 °F 71% 30.14 in 10.0 mi West 13.8 mph - N/A   Clear
5:15 PM 31.1 °F 22.4 °F 23.0 °F 72% 30.16 in 10.0 mi West 10.4 mph - N/A   Clear
5:35 PM 29.8 °F 20.9 °F 22.8 °F 75% 30.17 in 10.0 mi West 10.4 mph - N/A   Clear
5:55 PM 28.4 °F 17.5 °F 22.1 °F 77% 30.17 in 10.0 mi West 13.8 mph - N/A   Clear
6:15 PM 26.6 °F 19.1 °F 21.4 °F 81% 30.18 in 10.0 mi West 6.9 mph - N/A   Clear
6:35 PM 25.7 °F 17.1 °F 20.5 °F 81% 30.19 in 10.0 mi West 8.1 mph - N/A   Clear
6:55 PM 25.5 °F 13.8 °F 20.1 °F 80% 30.18 in 10.0 mi West 13.8 mph - N/A   Clear
7:15 PM 24.8 °F 14.0 °F 19.9 °F 82% 30.18 in 10.0 mi West 11.5 mph - N/A   Clear
7:35 PM 23.2 °F 12.0 °F 18.7 °F 83% 30.19 in 10.0 mi WSW 11.5 mph - N/A   Clear
7:55 PM 23.0 °F 12.4 °F 18.7 °F 84% 30.19 in 10.0 mi WSW 10.4 mph - N/A   Clear
8:15 PM 23.5 °F 13.0 °F 18.9 °F 82% 30.19 in 10.0 mi WSW 10.4 mph - N/A   Clear
8:35 PM 23.2 °F 12.0 °F 18.9 °F 84% 30.19 in 10.0 mi SW 11.5 mph - N/A   Clear
8:55 PM 23.9 °F 11.7 °F 18.9 °F 81% 30.20 in 10.0 mi WSW 13.8 mph - N/A   Clear
9:15 PM 23.7 °F 11.5 °F 18.5 °F 80% 30.20 in 10.0 mi WSW 13.8 mph - N/A   Clear
9:35 PM 23.7 °F 12.1 °F 18.5 °F 80% 30.20 in 10.0 mi WSW 12.7 mph - N/A   Clear
9:55 PM 23.2 °F 10.8 °F 18.3 °F 82% 30.20 in 10.0 mi WSW 13.8 mph 18.4 mph N/A   Clear
10:15 PM 22.5 °F 11.1 °F 17.6 °F 82% 30.19 in 10.0 mi WSW 11.5 mph - N/A   Clear
10:35 PM 22.1 °F 9.5 °F 17.4 °F 82% 30.19 in 10.0 mi WSW 13.8 mph - N/A   Clear
10:55 PM 22.1 °F 9.5 °F 17.2 °F 82% 30.19 in 10.0 mi WSW 13.8 mph - N/A   Clear
11:15 PM 24.4 °F 11.5 °F 18.5 °F 78% 30.19 in 10.0 mi WSW 16.1 mph - N/A   Clear
11:35 PM 24.6 °F 11.7 °F 18.3 °F 77% 30.18 in 10.0 mi WSW 16.1 mph - N/A   Clear
11:55 PM 24.8 °F 12.4 °F 18.5 °F 77% 30.18 in 10.0 mi SW 15.0 mph - N/A   Clear